Weather History for K1P1 - December, 2013

Change the Weather History Date:

Sunday, December 29, 2013

  Actual Average Record
Temperature  
Mean Temperature 26 °F -  
Max Temperature 33 °F - - ()
Min Temperature 20 °F - - ()
Degree Days  
Heating Degree Days 38    
Moisture  
Dew Point 28 °F    
Average Humidity 98    
Maximum Humidity 100    
Minimum Humidity 96    
Precipitation  
Precipitation 0.66 in - - ()
Sea Level Pressure  
Sea Level Pressure 29.83 in    
Wind  
Wind Speed 0 mph (North)    
Max Wind Speed 5 mph    
Max Gust Speed -    
Visibility 3 miles    
Events Fog , Snow    
T = Trace of Precipitation, MM = Missing Value Source: NWS Daily Summary

Daily Weather History Graph

Daily Weather History Graph

Search for Another Location

Airport or City:

Trip Planner

Search our weather history database for the weather conditions in past years. The results will help you decide how hot, cold, wet, or windy it might be!

Date:

Astronomy

Dec. 29, 2013 Rise Set
Actual Time 7:20 AM EST 4:17 PM EST
Civil Twilight 6:47 AM EST 4:50 PM EST
Nautical Twilight 6:11 AM EST 5:27 PM EST
Astronomical Twilight 5:36 AM EST 6:02 PM EST
Moon 3:58 AM EST (12/29) 1:55 PM EST (12/29)
Length of Visible Light 10h 03m
Length of Day
8h 57m
Waning Crescent, 11% of the Moon is Illuminated
Dec 29
Waning Crescent
Jan 1
New
Jan 7
First Quarter
Jan 15
Full
Jan 24
Last Quarter

Hourly Weather History & Observations

Time (EST) Temp. Windchill Dew Point Humidity Pressure Visibility Wind Dir Wind Speed Gust Speed Precip Events Conditions
12:15 AM 26.4 °F - 25.9 °F 98% 29.96 in 1.0 mi Calm Calm - N/A   Mist
12:35 AM 26.2 °F - 25.7 °F 98% 29.96 in 2.5 mi Calm Calm - N/A   Clear
12:55 AM 24.3 °F - 23.5 °F 97% 29.97 in 3.0 mi Calm Calm - N/A   Clear
1:15 AM 26.2 °F - 25.5 °F 97% 29.98 in 1.2 mi Calm Calm - N/A   Mist
1:35 AM 24.1 °F - 23.4 °F 97% 29.98 in 2.0 mi Calm Calm - N/A   Clear
1:55 AM 24.4 °F - 23.5 °F 96% 29.98 in 4.0 mi Calm Calm - N/A   Clear
2:15 AM 23.4 °F - 22.6 °F 97% 29.98 in 3.0 mi Calm Calm - N/A   Clear
2:35 AM 23.5 °F - 22.8 °F 97% 29.98 in 3.0 mi Calm Calm - N/A   Clear
2:55 AM 22.1 °F - 21.2 °F 96% 29.97 in 5.0 mi Calm Calm - N/A   Clear
3:15 AM 23.0 °F - 22.3 °F 97% 29.97 in 5.0 mi Calm Calm - N/A   Scattered Clouds
3:35 AM 22.3 °F - 21.6 °F 97% 29.98 in 2.0 mi Calm Calm - N/A   Overcast
3:55 AM 21.4 °F - 20.3 °F 96% 29.99 in 0.5 mi Calm Calm - N/A Fog Light Freezing Fog
4:15 AM 21.7 °F - 20.8 °F 96% 29.97 in 0.2 mi Calm Calm - N/A Fog Light Freezing Fog
4:35 AM 21.6 °F - 20.5 °F 96% 29.98 in 0.5 mi Calm Calm - N/A Fog Light Freezing Fog
4:55 AM 20.7 °F - 19.6 °F 96% 29.98 in 1.0 mi Calm Calm - N/A   Overcast
5:15 AM 21.2 °F - 20.1 °F 96% 29.98 in 1.8 mi Calm Calm - N/A   Overcast
5:35 AM 21.9 °F - 20.8 °F 96% 29.97 in 0.2 mi Calm Calm - N/A Fog Light Freezing Fog
5:55 AM 21.2 °F - 20.1 °F 96% 29.98 in 0.2 mi Calm Calm - N/A Fog Light Freezing Fog
6:15 AM 21.7 °F - 20.8 °F 96% 29.98 in 0.2 mi Calm Calm - N/A Fog Light Freezing Fog
6:35 AM 21.2 °F - 20.3 °F 96% 29.98 in 0.2 mi Calm Calm - N/A Fog Light Freezing Fog
6:55 AM 21.2 °F - 20.1 °F 96% 29.97 in 0.2 mi Calm Calm - N/A Fog Light Freezing Fog
7:15 AM 21.7 °F - 20.8 °F 96% 29.97 in 0.2 mi Calm Calm - N/A Fog Light Freezing Fog
7:35 AM 21.9 °F - 21.0 °F 96% 29.96 in 0.2 mi Calm Calm - N/A Fog Light Freezing Fog
7:55 AM 22.6 °F - 21.7 °F 96% 29.98 in 0.2 mi Calm Calm - N/A Fog Light Freezing Fog
8:15 AM 22.8 °F - 21.9 °F 96% 29.98 in 0.2 mi Calm Calm - N/A Fog Light Freezing Fog
8:35 AM 23.2 °F - 22.3 °F 96% 29.99 in 0.2 mi Calm Calm - N/A Fog Light Freezing Fog
8:55 AM 23.7 °F - 22.8 °F 96% 29.98 in 0.2 mi Calm Calm - N/A Fog Light Freezing Fog
9:15 AM 24.6 °F - 23.9 °F 97% 29.98 in 1.2 mi Calm Calm - N/A   Mostly Cloudy
9:35 AM 24.8 °F - 24.1 °F 97% 29.97 in 2.0 mi Calm Calm - N/A   Clear
9:55 AM 25.5 °F - 24.8 °F 97% 29.96 in 2.5 mi Calm Calm - N/A   Clear
10:15 AM 26.4 °F - 25.7 °F 97% 29.95 in 2.5 mi Calm Calm - N/A   Clear
10:35 AM 27.3 °F - 26.6 °F 97% 29.93 in 3.0 mi Calm Calm - N/A   Clear
10:55 AM 27.9 °F - 27.3 °F 98% 29.91 in 4.0 mi Calm Calm - N/A   Clear
11:15 AM 28.6 °F - 28.2 °F 99% 29.91 in 4.0 mi Calm Calm - N/A   Clear
11:35 AM 29.3 °F - 29.1 °F 99% 29.91 in 4.0 mi Calm Calm - N/A   Clear
11:55 AM 30.0 °F - 29.7 °F 99% 29.90 in 4.0 mi Calm Calm - N/A   Scattered Clouds
12:15 PM 30.4 °F - 30.0 °F 99% 29.88 in 5.0 mi Calm Calm - N/A   Mostly Cloudy
12:35 PM 30.7 °F - 30.4 °F 99% 29.86 in 4.0 mi Calm Calm - N/A   Overcast
12:55 PM 31.1 °F 27.7 °F 30.9 °F 99% 29.83 in 4.0 mi East 3.5 mph - N/A   Mostly Cloudy
1:15 PM 31.6 °F - 31.5 °F 99% 29.84 in 5.0 mi Calm Calm - N/A   Overcast
1:35 PM 31.8 °F - 31.6 °F 99% 29.83 in 7.0 mi Calm Calm - N/A   Overcast
1:55 PM 31.8 °F - 31.6 °F 99% 29.82 in 7.0 mi Calm Calm - N/A   Overcast
2:15 PM 32.0 °F - 31.8 °F 99% 29.80 in 7.0 mi Calm Calm - N/A   Overcast
2:35 PM 32.0 °F - 32.0 °F 100% 29.79 in 7.0 mi Calm Calm - N/A   Overcast
2:55 PM 32.0 °F - 31.8 °F 99% 29.79 in 7.0 mi Calm Calm - N/A   Overcast
3:15 PM 32.0 °F - 31.8 °F 99% 29.79 in 7.0 mi Calm Calm - N/A   Overcast
3:35 PM 32.0 °F - 31.8 °F 99% 29.79 in 5.0 mi Calm Calm - N/A   Overcast
3:55 PM 32.0 °F - 32.0 °F 100% 29.77 in 7.0 mi Calm Calm - N/A   Overcast
4:15 PM 32.0 °F - 32.0 °F 100% 29.76 in 4.0 mi Calm Calm - N/A Snow Light Snow
4:35 PM 32.0 °F - 31.3 °F 97% 29.74 in 2.5 mi Calm Calm - N/A Snow Light Snow
4:55 PM 32.0 °F - 31.1 °F 96% 29.72 in 1.5 mi Calm Calm - N/A Snow Light Snow
5:15 PM 32.0 °F - 31.5 °F 98% 29.71 in 1.0 mi Calm Calm - 0.02 in Snow Light Snow
5:35 PM 32.0 °F - 32.0 °F 100% 29.69 in 1.0 mi Calm Calm - 0.06 in Snow Snow
5:55 PM 32.2 °F - 32.0 °F 99% 29.67 in 0.8 mi Calm Calm - 0.11 in Snow Snow
6:15 PM 32.0 °F - 32.0 °F 100% 29.66 in 0.8 mi Calm Calm - 0.03 in Snow Snow
6:35 PM 32.0 °F - 32.0 °F 100% 29.64 in 0.8 mi Calm Calm - 0.08 in Snow Snow
6:55 PM 32.0 °F - 32.0 °F 100% 29.63 in 0.8 mi Calm Calm - 0.13 in Snow Snow
7:15 PM 32.0 °F - 32.0 °F 100% 29.63 in 0.8 mi Calm Calm - 0.05 in Snow Snow
7:35 PM 32.2 °F - 32.0 °F 99% 29.62 in 0.8 mi Calm Calm - 0.10 in Snow Snow
7:55 PM 32.4 °F - 32.2 °F 99% 29.62 in 0.8 mi Calm Calm - 0.15 in Snow Snow
8:15 PM 32.2 °F - 32.0 °F 99% 29.61 in 0.5 mi Calm Calm - 0.04 in Snow Snow
8:35 PM 32.2 °F - 32.0 °F 99% 29.59 in 0.8 mi Calm Calm - 0.10 in Snow Snow
8:55 PM 32.0 °F - 32.0 °F 100% 29.57 in 0.8 mi Calm Calm - 0.16 in Snow Snow
9:15 PM 32.0 °F - 32.0 °F 100% 29.57 in 0.8 mi Calm Calm - 0.05 in Snow Light Snow
9:35 PM 32.2 °F - 32.2 °F 100% 29.57 in 1.8 mi Calm Calm - 0.06 in Snow Light Snow
9:55 PM 32.4 °F - 32.2 °F 99% 29.57 in 2.0 mi Calm Calm - 0.07 in Snow Light Snow
10:15 PM 32.5 °F - 32.4 °F 99% 29.56 in 3.0 mi Calm Calm - 0.01 in Snow Light Snow
10:35 PM 32.5 °F - 32.5 °F 100% 29.56 in 4.0 mi Calm Calm - 0.03 in Snow Light Snow
10:55 PM 32.9 °F 29.8 °F 32.9 °F 100% 29.56 in 5.0 mi NW 3.5 mph - 0.04 in Snow Light Snow
11:15 PM 33.4 °F 30.4 °F 33.3 °F 99% 29.56 in 10.0 mi NNW 3.5 mph - N/A   Overcast
11:35 PM 33.8 °F 30.8 °F 33.6 °F 99% 29.54 in 10.0 mi North 3.5 mph - N/A   Overcast
11:55 PM 33.8 °F 29.6 °F 33.3 °F 98% 29.54 in 10.0 mi NNW 4.6 mph - N/A   Overcast